Wind_Speed
48 47 48 48 48 49 50 50 52 52 52 49 48 49 49 48 48 47 46 44 43 41 40 38 37 37 37 35 34 35 34 34 32 33 34 35 36 37 38 39 40 40 40 41
50 48 48 49 48 47 48 49 51 52 51 47 48 49 49 48 47 46 45 43 42 40 39 38 36 36 35 34 34 34 33 33 32 32 33 34 35 36 37 38 38 39 40 41
51 48 50 50 46 46 47 48 49 51 50 48 48 48 47 46 45 44 43 42 41 39 38 38 37 36 35 33 31 32 32 31 31 31 31 32 34 34 34 35 36 37 39 39
50 50 52 49 47 47 48 48 48 49 48 48 48 47 45 45 44 43 42 42 40 39 37 36 36 35 34 32 31 31 30 30 30 30 31 32 33 33 34 34 35 36 37 38
51 52 53 49 46 46 47 49 47 48 48 48 47 46 45 44 44 43 42 41 40 38 37 36 35 34 33 32 31 30 30 29 29 30 31 31 32 32 33 34 34 34 34 37
51 52 53 49 46 46 49 50 46 47 47 47 46 45 43 42 42 41 41 41 40 38 36 35 34 33 31 29 29 29 29 29 29 30 30 30 31 31 32 34 34 33 33 35
50 51 52 48 47 48 49 49 47 47 47 46 45 44 43 42 41 42 42 41 40 38 36 34 32 31 29 27 26 25 25 26 27 29 29 29 31 31 31 33 33 33 33 34
49 51 50 47 48 48 48 48 48 48 47 46 45 43 42 42 42 42 42 41 39 36 34 33 31 29 28 26 25 24 23 23 25 27 28 28 29 29 30 32 33 33 34 34
50 50 49 48 49 48 48 48 48 48 47 45 45 44 43 42 42 42 41 40 38 35 33 31 30 29 28 26 25 24 24 24 25 25 27 28 29 30 29 30 31 33 34 35
50 49 48 48 48 47 48 48 48 48 46 46 45 44 43 42 42 42 41 39 36 34 32 30 30 30 28 27 25 25 25 25 26 26 27 29 29 30 30 30 31 32 33 35
49 47 47 47 47 47 48 48 48 46 45 45 45 43 43 42 41 41 39 37 34 32 31 30 29 29 29 28 26 26 25 25 26 26 27 28 30 29 30 30 32 32 32 34
47 45 46 46 46 47 47 47 46 45 44 44 44 43 42 41 40 39 37 34 33 31 31 30 29 29 29 28 27 26 27 27 27 27 28 28 30 30 30 30 32 32 33 34
45 45 45 45 45 45 46 45 44 44 43 42 42 42 41 39 38 37 35 33 32 31 31 30 29 28 28 28 27 27 27 28 28 28 29 29 30 30 30 30 31 33 33 35
43 44 44 44 44 44 45 44 43 42 41 41 40 39 38 37 36 34 33 32 31 31 30 29 28 28 28 28 27 27 27 27 28 28 29 30 30 31 32 32 32 34 35 35
42 43 43 43 43 43 42 41 40 40 39 38 37 36 35 35 34 32 31 30 30 30 29 28 27 27 28 28 27 27 27 28 28 29 30 31 32 33 34 33 33 34 35 36
40 40 40 40 40 39 38 38 38 37 37 36 36 35 34 33 31 30 30 30 30 29 28 28 27 27 27 27 27 26 27 27 28 29 31 33 34 34 35 34 33 34 35 35
37 37 38 37 37 36 36 36 36 35 35 34 34 32 31 30 30 29 29 29 28 27 27 27 26 26 26 26 26 26 27 27 27 29 32 33 34 35 36 35 35 35 35 35
35 35 35 34 34 34 33 33 33 33 32 31 30 29 28 28 28 28 27 26 26 25 25 25 24 24 24 24 25 25 26 27 27 29 32 34 35 36 36 36 36 36 36 35
32 32 31 31 31 30 30 29 29 29 29 29 27 26 26 26 26 25 25 24 23 22 22 23 23 23 23 23 24 24 25 26 26 27 31 34 36 37 37 38 38 37 36 36
28 27 27 27 26 26 26 26 26 26 26 25 23 23 23 24 23 22 21 21 21 20 20 20 20 20 20 21 22 23 24 26 26 27 30 33 35 37 38 38 38 37 37 36
25 24 24 23 23 23 23 24 24 23 22 21 21 21 20 20 20 19 18 18 18 18 18 18 18 18 18 19 20 22 23 25 26 27 30 33 35 37 38 39 38 37 37 37
22 21 21 21 21 21 22 22 21 21 20 19 19 19 18 18 17 17 16 16 15 16 16 15 16 16 16 17 19 21 22 24 24 26 29 33 35 36 37 37 38 38 38 38
20 20 19 19 20 20 20 20 20 19 18 17 17 17 17 16 16 15 14 14 13 13 13 13 13 13 14 15 17 19 22 23 24 26 28 32 35 36 36 36 37 38 38 38
19 19 18 18 19 19 18 18 17 16 15 15 15 15 15 14 13 13 11 10 10 10 10 10 10 11 12 14 16 18 20 23 25 27 29 32 33 34 35 36 36 38 38 37
17 17 17 17 17 16 16 15 14 14 13 13 13 13 13 12 11 10 9 8 8 7 7 7 7 9 11 13 15 17 19 22 24 27 30 31 32 33 34 35 36 37 36 36
16 16 16 15 14 14 13 12 11 11 11 11 11 10 10 10 9 8 7 6 5 5 5 6 7 8 10 12 14 16 19 22 25 27 29 30 31 31 32 34 34 35 36 36
14 13 12 11 11 10 10 9 9 9 9 8 8 8 8 7 6 5 4 3 3 4 5 6 7 8 11 13 15 17 20 23 25 27 28 28 29 30 32 33 34 34 34 34
Wind_Direction
288 290 290 290 292 293 294 296 297 300 300 303 301 299 300 299 298 298 299 298 297 295 292 290 288 285 280 276 271 268 265 263 259 254 248 241 238 237 235 235 231 230 229 225
287 289 289 288 291 293 294 295 296 298 299 301 299 299 300 299 298 298 298 297 296 294 291 289 288 285 280 277 272 267 265 262 256 251 245 241 239 238 236 232 230 229 228 226
286 288 286 288 294 293 293 295 296 297 300 299 298 299 299 298 297 296 296 297 297 295 292 290 288 285 282 278 272 267 264 260 254 248 241 240 239 239 235 232 230 229 226 223
286 286 285 292 293 293 293 294 294 296 298 298 297 298 298 298 297 296 297 297 298 296 292 290 288 285 282 278 272 266 261 257 251 245 240 238 239 237 234 230 228 225 222 220
284 285 287 290 294 295 294 293 295 296 297 296 297 297 298 297 297 297 297 297 298 297 293 291 289 285 281 278 272 265 260 255 250 245 241 239 239 236 234 230 225 222 220 219
282 284 288 293 294 293 293 293 295 294 295 296 296 297 297 296 295 296 296 297 297 295 293 290 288 285 281 277 270 265 260 255 250 244 239 235 234 232 231 228 224 222 221 220
281 284 288 293 294 294 293 296 295 294 295 295 295 297 296 295 294 295 296 297 295 294 291 289 286 283 279 276 269 264 260 254 248 241 237 233 230 227 226 225 226 223 220 218
281 282 288 292 291 292 293 293 294 295 294 294 295 295 295 294 294 295 296 296 294 292 289 287 284 280 276 272 265 261 258 252 246 240 236 230 227 224 223 224 225 224 221 217
279 283 286 287 288 289 290 291 292 293 293 292 293 294 293 293 293 293 294 294 293 290 286 283 280 277 272 268 262 257 255 251 244 238 234 230 228 225 224 223 222 222 221 217
280 282 283 284 285 286 286 288 290 292 292 291 291 292 292 292 292 292 292 292 290 287 283 281 277 273 272 267 260 255 252 249 243 237 234 229 225 222 222 222 220 218 218 215
280 282 281 281 283 284 285 288 290 290 291 290 290 291 292 292 292 291 291 290 287 284 281 279 276 272 268 264 258 252 249 246 242 237 231 226 222 221 222 219 216 215 214 212
281 282 281 281 282 283 286 288 289 289 289 289 290 290 291 291 291 291 290 286 284 282 280 279 275 269 264 260 256 251 246 243 239 235 231 227 222 221 219 215 212 211 210 209
280 280 281 282 284 285 286 286 287 288 288 288 288 289 290 290 290 289 287 283 280 280 280 276 272 266 261 258 255 251 244 241 238 234 231 228 221 217 213 211 208 207 207 207
279 280 282 283 285 285 286 286 286 287 287 288 289 289 289 288 288 287 285 282 280 279 277 273 269 264 258 256 253 249 243 238 235 231 227 223 217 213 210 209 207 205 205 205
281 282 282 283 284 285 285 285 286 286 287 288 290 290 289 288 286 285 283 280 279 278 275 271 267 262 256 253 249 245 240 236 233 229 225 221 216 212 210 208 206 204 202 202
280 281 282 283 284 285 284 284 286 287 288 289 290 289 288 287 286 284 282 280 280 277 274 270 265 260 255 253 249 244 240 235 231 226 222 219 215 212 209 207 205 204 202 201
281 282 283 284 285 285 285 286 288 288 289 290 289 288 287 285 284 284 283 281 279 275 272 268 263 259 255 252 249 244 238 233 228 222 218 216 214 211 209 207 205 204 202 201
283 284 284 283 284 284 284 286 287 288 290 291 290 288 287 285 284 284 281 279 278 275 270 266 262 257 254 251 246 242 235 230 225 220 216 213 212 210 207 204 202 202 201 201
284 284 284 284 285 285 286 287 288 289 291 291 291 289 288 288 287 284 281 279 277 272 269 267 263 257 252 248 243 237 231 225 220 216 212 209 208 207 205 202 201 200 199 199
285 285 285 286 286 288 289 290 291 291 292 293 292 291 290 290 288 284 281 279 277 272 268 266 261 255 250 246 239 233 228 222 216 212 208 205 204 204 203 201 199 199 200 199
286 286 287 287 288 291 292 293 293 294 294 294 293 294 293 291 289 286 283 281 277 273 270 266 259 253 248 241 234 228 223 217 212 208 205 202 201 201 201 199 198 198 198 197
286 287 288 289 291 293 294 294 294 295 294 294 293 294 294 293 291 289 286 281 276 274 271 265 257 250 244 235 226 220 215 209 205 202 200 197 196 197 198 197 195 195 195 195
287 288 289 290 293 295 295 295 294 294 293 293 293 294 294 294 293 290 287 282 277 272 268 262 255 245 236 225 217 213 209 204 200 195 193 192 192 193 194 194 194 193 192 193
287 289 290 292 294 295 295 294 294 293 293 293 294 296 295 295 296 293 289 284 278 270 263 256 245 234 222 213 208 205 202 199 195 191 189 187 186 188 190 191 190 189 189 191
287 289 291 293 295 296 296 295 294 294 295 296 297 299 300 299 297 293 288 285 278 266 253 238 223 211 204 200 197 196 194 190 187 185 183 184 185 187 187 188 188 187 187 188
288 290 292 293 294 296 297 297 298 299 299 300 301 304 305 306 303 297 289 281 269 249 230 216 203 196 192 190 187 185 185 182 181 181 181 182 184 183 184 184 184 184 185 187
289 292 294 295 296 297 299 302 304 305 304 304 309 311 312 313 314 309 297 266 229 207 193 185 183 179 176 175 174 174 174 175 177 178 179 179 180 179 179 182 184 184 185 186
Height
5572 5571 5566 5564 5562 5558 5552 5547 5540 5538 5534 5534 5528 5521 5517 5513 5508 5504 5499 5494 5490 5486 5482 5479 5475 5473 5470 5469 5469 5468 5468 5469 5469 5471 5474 5477 5481 5485 5489 5494 5499 5505 5512 5519
5559 5559 5553 5551 5552 5548 5542 5537 5530 5525 5524 5523 5515 5510 5506 5501 5497 5493 5488 5484 5480 5476 5472 5469 5466 5463 5461 5460 5459 5459 5459 5460 5461 5462 5465 5469 5473 5477 5481 5486 5491 5497 5504 5511
5545 5546 5539 5539 5544 5537 5531 5527 5521 5514 5513 5509 5504 5500 5495 5491 5486 5482 5478 5474 5470 5466 5462 5459 5456 5454 5452 5451 5450 5450 5450 5451 5453 5454 5457 5461 5465 5469 5474 5479 5484 5490 5496 5503
5531 5530 5525 5533 5530 5525 5519 5516 5511 5504 5501 5497 5492 5489 5485 5481 5476 5472 5468 5464 5460 5456 5453 5450 5447 5445 5443 5442 5441 5441 5442 5443 5445 5447 5450 5454 5458 5462 5467 5472 5477 5483 5489 5496
5518 5514 5511 5520 5518 5511 5504 5503 5502 5494 5490 5485 5481 5478 5476 5470 5465 5461 5458 5454 5450 5447 5444 5441 5438 5436 5434 5433 5432 5433 5434 5435 5437 5440 5444 5448 5451 5455 5460 5465 5471 5476 5482 5490
5506 5501 5499 5507 5505 5498 5492 5490 5491 5483 5478 5474 5470 5467 5466 5461 5456 5452 5448 5444 5441 5437 5435 5432 5429 5427 5426 5425 5425 5425 5426 5428 5430 5433 5437 5441 5444 5448 5453 5458 5464 5470 5476 5483
5494 5488 5487 5494 5490 5485 5481 5479 5476 5471 5467 5463 5460 5456 5454 5450 5446 5442 5438 5434 5431 5428 5426 5423 5421 5419 5419 5418 5418 5418 5419 5421 5423 5426 5430 5434 5438 5442 5447 5452 5458 5463 5470 5477
5483 5478 5480 5481 5475 5473 5469 5465 5462 5458 5455 5452 5449 5445 5442 5439 5435 5432 5428 5425 5421 5419 5417 5415 5413 5412 5411 5412 5412 5412 5413 5415 5417 5420 5423 5428 5432 5437 5442 5446 5451 5457 5463 5470
5471 5471 5470 5466 5463 5459 5456 5453 5450 5446 5443 5440 5437 5434 5431 5428 5424 5421 5418 5414 5411 5409 5408 5406 5404 5404 5404 5405 5405 5406 5407 5409 5411 5414 5417 5421 5425 5430 5435 5440 5446 5451 5458 5464
5458 5460 5457 5453 5450 5447 5444 5441 5438 5435 5432 5428 5425 5423 5420 5417 5413 5410 5407 5404 5401 5399 5398 5397 5396 5395 5395 5396 5397 5399 5400 5402 5405 5407 5411 5415 5419 5424 5429 5434 5440 5446 5452 5459
5445 5446 5443 5441 5438 5435 5432 5429 5426 5423 5420 5417 5413 5411 5408 5405 5402 5399 5396 5393 5391 5389 5389 5388 5387 5387 5387 5387 5389 5391 5393 5395 5398 5401 5404 5409 5413 5418 5423 5428 5434 5440 5447 5454
5433 5433 5429 5428 5426 5423 5420 5417 5414 5411 5409 5406 5402 5399 5396 5394 5391 5388 5385 5383 5381 5380 5379 5379 5378 5378 5379 5379 5381 5383 5386 5388 5391 5394 5398 5402 5407 5412 5417 5423 5429 5435 5442 5449
5420 5419 5416 5415 5413 5410 5407 5405 5402 5400 5397 5394 5391 5388 5385 5382 5380 5377 5374 5372 5371 5371 5370 5370 5369 5369 5370 5371 5372 5374 5377 5380 5383 5387 5391 5396 5401 5406 5412 5418 5423 5430 5437 5444
5408 5406 5404 5403 5401 5398 5395 5393 5391 5388 5386 5383 5380 5377 5374 5371 5369 5366 5364 5363 5362 5361 5360 5360 5360 5360 5361 5362 5364 5366 5369 5372 5376 5380 5384 5389 5394 5400 5406 5412 5418 5425 5432 5439
5396 5394 5392 5391 5389 5387 5384 5382 5380 5377 5375 5372 5369 5366 5363 5361 5359 5357 5355 5353 5352 5351 5351 5350 5350 5351 5352 5353 5355 5358 5361 5364 5368 5372 5377 5382 5388 5394 5400 5407 5413 5420 5426 5434
5385 5383 5381 5379 5378 5376 5373 5371 5369 5366 5364 5361 5358 5355 5353 5350 5348 5347 5345 5343 5343 5342 5341 5341 5341 5342 5342 5344 5347 5349 5352 5356 5360 5365 5369 5375 5381 5388 5395 5401 5408 5415 5422 5429
5374 5373 5371 5369 5367 5365 5363 5360 5358 5356 5353 5351 5348 5345 5343 5341 5339 5337 5336 5334 5333 5332 5332 5331 5332 5333 5334 5336 5338 5341 5344 5348 5352 5357 5362 5368 5375 5382 5389 5396 5403 5410 5418 5425
5364 5363 5361 5359 5357 5355 5353 5351 5348 5346 5344 5341 5339 5336 5334 5332 5330 5328 5327 5325 5324 5323 5323 5323 5323 5324 5326 5328 5330 5333 5336 5340 5345 5349 5355 5361 5368 5375 5383 5390 5398 5406 5413 5420
5354 5353 5351 5349 5347 5346 5344 5342 5340 5337 5335 5333 5330 5328 5326 5323 5321 5320 5318 5317 5316 5315 5315 5314 5315 5317 5318 5320 5322 5326 5329 5333 5338 5343 5348 5355 5362 5369 5377 5385 5393 5401 5408 5416
5346 5344 5342 5341 5339 5337 5335 5334 5332 5330 5327 5325 5322 5320 5318 5316 5313 5312 5310 5309 5308 5307 5307 5307 5308 5309 5311 5313 5315 5319 5322 5327 5331 5336 5342 5349 5357 5364 5372 5380 5388 5396 5404 5412
5338 5337 5335 5334 5332 5330 5328 5326 5324 5322 5320 5318 5316 5314 5311 5309 5307 5305 5303 5303 5302 5301 5301 5301 5302 5303 5304 5306 5309 5313 5317 5321 5326 5331 5337 5344 5352 5360 5368 5376 5384 5392 5400 5408
5332 5330 5329 5327 5326 5324 5322 5320 5318 5316 5314 5312 5310 5308 5306 5303 5301 5299 5298 5297 5296 5295 5295 5295 5296 5297 5299 5301 5304 5308 5312 5317 5322 5327 5333 5340 5348 5356 5364 5372 5380 5388 5396 5405
5326 5324 5323 5321 5320 5318 5316 5314 5312 5310 5308 5306 5304 5302 5300 5298 5296 5295 5293 5292 5291 5291 5291 5291 5291 5293 5294 5297 5300 5304 5309 5314 5319 5324 5330 5337 5345 5353 5361 5369 5377 5385 5393 5402
5320 5319 5317 5316 5314 5312 5310 5309 5307 5305 5303 5302 5300 5298 5296 5294 5292 5290 5289 5288 5287 5287 5287 5287 5288 5290 5291 5294 5298 5302 5306 5311 5316 5322 5329 5336 5343 5351 5359 5367 5374 5382 5391 5399
5314 5313 5312 5310 5309 5307 5306 5304 5302 5301 5299 5298 5296 5294 5292 5291 5289 5287 5286 5285 5284 5284 5284 5285 5286 5288 5290 5293 5296 5300 5304 5310 5315 5321 5328 5335 5342 5349 5357 5365 5373 5381 5389 5397
5309 5308 5307 5305 5304 5303 5301 5300 5298 5297 5296 5294 5293 5291 5290 5288 5286 5285 5283 5283 5282 5282 5283 5283 5285 5287 5289 5292 5295 5299 5304 5309 5315 5321 5328 5335 5342 5349 5356 5364 5372 5380 5388 5396
5304 5303 5302 5301 5300 5299 5298 5297 5296 5294 5293 5292 5290 5289 5287 5286 5284 5283 5282 5282 5282 5282 5282 5283 5285 5287 5289 5292 5296 5300 5305 5310 5316 5322 5328 5335 5342 5349 5356 5364 5372 5379 5387 5395